Regional Weather Roundup
Issued by NWS Portland, ME

Home | Current Version | Previous Version | Text Only | Print | Product List | Glossary On
Versions: 1 2 3 4 5 6 7 8 9 10 11 12 13 14 15 16 17 18 19 20 21 22 23 24 25 26 27 28 29 30 31 32 33 34 35 36 37 38 39 40 41 42 43 44 45 46 47 48 49 50
000
ASUS41 KGYX 250910
RWRGYX
WEATHER ROUNDUP FOR MAINE AND NEW HAMPSHIRE
NATIONAL WEATHER SERVICE GRAY ME
500 AM EDT WED APR 25 2018

MEZ002-005-006-010-012-015-018-020-021-024-026-027-029-251000-
MAINE

CITY           SKY/WX    TMP DP  RH WIND       PRES   REMARKS
PORTLAND       CLOUDY    47  38  71 CALM      30.17F
SANFORD        CLOUDY    49  37  63 CALM      30.16F
BAR HARBOR     FAIR      44  37  76 SW12      30.19F
WISCASSET      FAIR      48  38  68 CALM      30.19S
ROCKLAND       FAIR      46  37  71 W8        30.18F
FRYEBURG       MOCLDY    52  39  61 CALM      30.14F
LEWISTONAUBURN FAIR      48  37  65 S6        30.16S
AUGUSTA        FAIR      48  37  65 S7        30.15S
WATERVILLE     FAIR      46  37  71 SW5       30.12S
BANGOR         MOCLDY    46  37  71 S8        30.15F
GREENVILLE       N/A     41  34  76 SE9       30.08S
MILLINOCKET    FAIR      43  34  70 SE6       30.12F
HOULTON        FAIR      44  34  67 S6        30.09S
PRESQUE ISLE   FAIR      42  32  67 S7        30.09F
FRENCHVILLE    FAIR      45  28  51 SE8       30.05S
CARIBOU        FAIR      42  31  64 S3        30.07S
$$

NHZ002-005-008-009-011-012-014-251000-
NEW HAMPSHIRE

CITY           SKY/WX    TMP DP  RH WIND       PRES   REMARKS
PORTSMOUTH     CLOUDY    49  35  57 SE7       30.14F
ROCHESTER      FAIR      50  36  58 CALM      30.15F
NASHUA         MOCLDY    51  38  60 CALM      30.15F
MANCHESTER     CLOUDY    53  34  48 SE3       30.13F
CONCORD        FAIR      51  36  56 SE5       30.14F
LACONIA        CLOUDY    51  36  56 CALM      30.15F
PLYMOUTH       CLOUDY    47  38  69 MISG      30.13F
BERLIN         FAIR      37  30  75 CALM      30.10F
WHITEFIELD     FAIR      39  33  79 CALM      30.11F
JAFFREY        CLOUDY    48  38  68 CALM      30.12F
KEENE          LGT RAIN  49  39  68 CALM      30.12F
LEBANON        LGT RAIN  51  38  60 S5        30.11F
MT WASHINGTON  FOG       32  32 100 W37         N/A  VSB 0   WCI  16
$$

VTZ005-007-008-251000-
VERMONT

CITY           SKY/WX    TMP DP  RH WIND       PRES   REMARKS
ST JOHNSBURY     N/A     52  38  58 MISG      30.09S
MONTPELIER     CLOUDY    50  36  58 S6        30.13S
BURLINGTON     CLOUDY    56  40  55 S14       30.05F
$$

MAZ007-012-024-CTZ003-RIZ002-NYZ038-NYZ072-251000-
SOUTHERN NEW ENGLAND AND NY

CITY           SKY/WX    TMP DP  RH WIND       PRES   REMARKS
BOSTON         MOCLDY    47  41  80 NE7       30.14F
WORCESTER      LGT RAIN  47  40  76 SE6       30.12F
NANTUCKET      CLOUDY    49  47  93 SE16      30.15F
PROVIDENCE     LGT RAIN  52  47  83 S6        30.13F
HARTFORD       LGT RAIN  48  45  89 N5        30.10F
ALBANY         LGT RAIN  49  45  86 CALM      30.09F
NEW YORK CITY  CLOUDY    55  53  93 E13       29.99F
$$

ANZ081-ANZ082-ANZ150-NHZ014-MEZ023>029-251000-
COASTAL MARINE OBSERVATIONS

STATION/POSITION TIME  TEMP    WIND        PRES    WAVE
                       AIR SEA DIR/SP/G            HT/PER
                 (UTC) (F)     (DEG/KT/KT) (MB)    (FT/S)
MOUNT DESERT ROC 0900   44     210/  9/ 10 1023.0F
MATINICUS ROCK   0900   45     200/ 21/ 23 1021.6F
ISLE OF SHOALS   0900   47     150/ 11/ 12 1021.0F
JEFFREYS LEDGE   0836      42                N/A     2/ 4
CASHES LEDGE BUO 0850   44 42              1022.7F   3/ 5
$$

.............KEY..............
   WCI - WIND CHILL
   TC  - TEMPERATURE IN CELSIUS
   VSB - VISIBILITY IN MILES
   HX  - HEAT INDEX
   FAIR- INDICATES FEW OR NO CLOUDS BELOW 12,000 FT, WITH NO
         SIGNIFICANT WEATHER AND/OR OBSTRUCTIONS TO VISIBILITY.






USA.gov is the U.S. government's official web portal to all federal, state and local government web resources and services.